This demonstration page uses our WeatherBlox Daily Observations layout. Learn more.

Left ArrowRight Arrow

Hourly Observations for September 7, 2020

Temp ( °F °C ) Dew Point ( °F °C ) Humidity (%) Winds ( mph kmh ) Pressure ( in mb ) Visibility ( mi km ) Precip ( " mm )
12:52 am 00:52 Clear 69 20.6 56 13.3 63 63 N 10 17 29.86 1011 10 16 0.00 0.00
1:52 am 01:52 Clear 66 18.9 55 12.8 68 68 N 8 13 29.87 1012 10 16 0.00 0.00
2:52 am 02:52 Clear 67 19.4 54 12.2 63 63 N 10 17 29.88 1012 10 16 0.00 0.00
3:52 am 03:52 Clear 65 18.3 54 12.2 68 68 N 9 15 29.89 1012 10 16 0.00 0.00
4:52 am 04:52 Clear 62 16.7 53 11.7 73 73 N 5 7 29.90 1012 10 16 0.00 0.00
5:52 am 05:52 Clear 62 16.7 50 10 65 65 N 7 11 29.89 1012 10 16 0.00 0.00
6:52 am 06:52 Mostly Clear 56 13.3 51 10.6 84 84 N 6 9 29.91 1013 10 16 0.00 0.00
7:52 am 07:52 Partly Cloudy 59 15 51 10.6 75 75 N 6 9 29.92 1013 10 16 0.00 0.00
8:52 am 08:52 Partly Cloudy 64 17.8 48 8.9 56 56 NE 5 7 29.91 1013 10 16 0.00 0.00
9:52 am 09:52 Mostly Cloudy 68 20 45 7.2 44 44 ENE 13 20 29.91 1013 10 16 0.00 0.00
10:52 am 10:52 Cloudy 70 21.1 44 6.7 39 39 ENE 14 22 29.88 1012 10 16 0.00 0.00
11:52 am 11:52 Cloudy 72 22.2 42 5.6 34 34 ENE 13 20 29.86 1011 10 16 0.00 0.00
12:52 pm 12:52 Cloudy 75 23.9 42 5.6 31 31 E 15 24 29.82 1010 10 16 0.00 0.00
1:52 pm 13:52 Cloudy 76 24.4 42 5.6 30 30 ENE 9 15 29.81 1010 10 16 0.00 0.00
2:52 pm 14:52 Cloudy 77 25 42 5.6 29 29 NE 15 24 29.80 1009 10 16 0.00 0.00
3:52 pm 15:52 Cloudy 75 23.9 42 5.6 31 31 NNE 15 24 29.79 1009 10 16 0.00 0.00
4:52 pm 16:52 Cloudy 74 23.3 40 4.4 29 29 NE 13 20 29.80 1009 10 16 0.00 0.00
5:52 pm 17:52 Cloudy 73 22.8 40 4.4 30 30 NE 15 24 29.80 1009 10 16 0.00 0.00
6:52 pm 18:52 Cloudy 72 22.2 39 3.9 30 30 NNE 17 28 29.83 1010 10 16 0.00 0.00
7:52 pm 19:52 Cloudy 70 21.1 41 5 35 35 NE 20 31 29.84 1010 10 16 0.00 0.00
8:52 pm 20:52 Cloudy 64 17.8 47 8.3 54 54 NNE 22 35 29.87 1012 10 16 0.00 0.00
9:06 pm 21:06 Cloudy with Thunderstorms 62 16.7 47 8.3 58 58 NNE 30 48 29.91 1013 10 16 0.00 0.00
9:30 pm 21:30 Cloudy 61 16.1 45 7.2 56 56 NNE 26 43 29.92 1013 10 16 0.00 0.00
9:52 pm 21:52 Cloudy 60 15.6 46 7.8 60 60 NNE 25 41 29.95 1014 10 16 0.00 0.00
10:28 pm 22:28 Cloudy with Thunderstorms 55 12.8 47 8.3 74 74 N 14 22 29.98 1015 7 11 0.00 0.00
10:47 pm 22:47 Cloudy with Light Rain 54 12 48 9 82 82 NNE 21 33 29.98 1015 6 10 0.04 1.02
10:52 pm 22:52 Cloudy with Light Rain 54 12.2 48 8.9 80 80 NNE 18 30 29.98 1015 6 10 0.05 1.27
10:56 pm 22:56 Windy with Storms Likely 54 12.2 48 8.9 80 80 NNE 20 31 29.99 1016 7 11 0.01 0.25
11:52 pm 23:52 Cloudy with Thunderstorms 53 11.7 48 8.9 83 83 N 16 26 29.99 1016 7 11 0.01 0.25

Powered by AerisWeather